Content
SEND FEEDBACK

Daily
Averages
Monthly
Summary
France

CAEN, FRANCE


Home > Europe > France
Elevation: 220 feet     Latitude: 49 11N     Longitude: 000 27W

WEATHER
 
SELECT A DAY
Number of Records: 216,119;   Date Range: 7/1/96 - 9/15/14
 
SHARE

PRINT THIS DATA

[ ← Previous Day ]
WEATHER ALMANAC - JANUARY 6, 2013
[ Next Day → ]
[ °C ]   °F
Weather ElementAverageHighLow
Temperature41.1 °F43 °F (1:00 am)39.2 °F (6:00 pm)
Dewpoint39.9 °F42.8 °F (12:30 am)39 °F (7:00 pm)
Humidity95.2 %100 % (12:30 am)92 % (1:00 pm)
Barometer30.52 in30.62 in (1:00 am)30.45 in (7:00 pm)
Wind Speed4.4 mph8.1 mph (4:30 am)
Weather ElementAverage
Visibility4.3 mi
Wind DirectionESE (127.8 °)

Weather ElementTotal
Precipitation---
Heating Degree Days23.9 (Base 65)
Averaged from 51 records on January 6, 2013
WEATHER CONDITIONS BREAKOUT
WIND DIRECTION BREAKOUT
WEATHER BY HOUR - JANUARY 6, 2013
[ °C ]   °F
Local TimeTemperatureDewpointHumidityBarometerVisibilityWind DirectionWind SpeedGust SpeedPrecipitationEventsConditions
12:30 AM42.8 °F42.8 °F100 %30.60 in2.5 miCalmOvercast
1:00 AM43.0 °F42.0 °F96 %30.62 in6.0 miCalmClear
1:00 AM42.8 °F42.8 °F100 %30.60 in5.6 miCalmOvercast
1:30 AM42.8 °F42.8 °F100 %30.60 in6.2 miCalmOvercast
2:00 AM42.8 °F42.8 °F100 %30.57 in6.2 miSouth (190°)4.6 mphOvercast
2:30 AM42.8 °F42.8 °F100 %30.57 in6.2 miSSW (200°)4.6 mphOvercast
3:00 AM42.8 °F42.8 °F100 %30.57 in6.2 miSSW (200°)5.8 mphOvercast
3:30 AM42.8 °F41.0 °F93 %30.57 in6.2 miSouth (170°)4.6 mphOvercast
4:00 AM42.8 °F41.0 °F93 %30.54 inSSE (150°)6.9 mphOvercast
4:30 AM42.8 °F41.0 °F93 %30.54 in4.3 miSSE (160°)8.1 mphOvercast
5:00 AM41.0 °F41.0 °F100 %30.54 in5.6 miSouth (170°)5.8 mphOvercast
5:30 AM41.0 °F41.0 °F100 %30.54 in3.7 miSouth (180°)5.8 mphOvercast
6:00 AM41.0 °F41.0 °F100 %30.54 in5.0 miSSE (150°)3.5 mphOvercast
6:30 AM41.0 °F39.2 °F93 %30.54 in5.6 miVariable3.5 mphOvercast
7:00 AM41.0 °F40.0 °F93 %30.57 in4.0 miSSE (160°)3.5 mphOvercast
7:00 AM41.0 °F39.2 °F93 %30.54 in3.1 miVariable3.5 mphOvercast
7:30 AM41.0 °F39.2 °F93 %30.57 in2.5 miCalmOvercast
8:00 AM41.0 °F39.2 °F93 %30.57 inVariable1.2 mphOvercast
8:30 AM41.0 °F39.2 °F93 %30.57 in5.6 miCalmOvercast
9:00 AM41.0 °F39.2 °F93 %30.57 in6.2 miCalmOvercast
9:30 AM41.0 °F39.2 °F93 %30.57 in5.6 miESE (110°)2.3 mphOvercast
10:00 AM41.0 °F39.2 °F93 %30.54 in1.7 miESE (120°)4.6 mphOvercast
10:30 AM41.0 °F39.2 °F93 %30.54 in1.2 miSE (130°)4.6 mphOvercast
11:00 AM41.0 °F39.2 °F93 %30.57 in1.4 miESE (120°)4.6 mphOvercast
11:30 AM41.0 °F39.2 °F93 %30.54 inESE (120°)5.8 mphOvercast
12:00 PM41.0 °F39.2 °F93 %30.54 in6.2 miESE (110°)4.6 mphOvercast
12:30 PM41.0 °F39.2 °F93 %30.54 in6.2 miSSE (150°)6.9 mphOvercast
1:00 PM41.0 °F40.0 °F92 %30.55 in9.0 miESE (120°)5.8 mphRainLight Drizzle
1:00 PM41.0 °F39.2 °F93 %30.54 in6.2 miESE (120°)5.8 mphOvercast
1:30 PM41.0 °F39.2 °F93 %30.51 in6.2 miSE (130°)6.9 mphOvercast
2:00 PM41.0 °F39.2 °F93 %30.51 in6.2 miSE (130°)4.6 mphOvercast
2:30 PM41.0 °F39.2 °F93 %30.51 in6.2 miSouth (170°)4.6 mphOvercast
3:00 PM41.0 °F39.2 °F93 %30.51 in6.2 miSouth (190°)4.6 mphOvercast
3:30 PM41.0 °F39.2 °F93 %30.48 in6.2 miVariable2.3 mphOvercast
4:00 PM41.0 °F39.2 °F93 %30.48 in6.2 miSouth (180°)4.6 mphOvercast
4:30 PM41.0 °F39.2 °F93 %30.48 in4.3 miSouth (170°)3.5 mphOvercast
5:00 PM41.0 °F39.2 °F93 %30.48 in3.7 miSSE (150°)5.8 mphOvercast
5:30 PM41.0 °F39.2 °F93 %30.48 in2.2 miSSE (150°)4.6 mphOvercast
6:00 PM39.2 °F39.2 °F100 %30.48 in1.8 miSSE (150°)5.8 mphOvercast
6:30 PM39.2 °F39.2 °F100 %30.48 inSSE (160°)6.9 mphOvercast
7:00 PM40.0 °F39.0 °F97 %30.48 in3.0 miSouth (170°)6.9 mphClear
7:00 PM41.0 °F39.2 °F93 %30.45 inSouth (170°)6.9 mphOvercast
7:30 PM39.2 °F39.2 °F100 %30.45 in1.6 miSouth (190°)5.8 mphOvercast
8:00 PM41.0 °F39.2 °F93 %30.45 in0.5 miSSE (160°)5.8 mphFogFog
8:30 PM41.0 °F39.2 °F93 %30.45 in1.7 miSouth (190°)5.8 mphOvercast
9:00 PM41.0 °F39.2 °F93 %30.45 in0.7 miSouth (180°)6.9 mphOvercast
9:30 PM41.0 °F39.2 °F93 %30.45 inSouth (190°)4.6 mphOvercast
10:00 PM41.0 °F39.2 °F93 %30.45 in0.9 miSouth (190°)4.6 mphOvercast
10:30 PM39.2 °F39.2 °F100 %30.45 in0.7 miSSW (200°)4.6 mphOvercast
11:00 PM39.2 °F39.2 °F100 %30.45 inSouth (180°)5.8 mphFogFog
11:30 PM39.2 °F39.2 °F100 %30.45 inSSE (160°)4.6 mphFogFog
Hourly data recorded from LFRK, located miles away from Caen, France







STORIES FROM OUR PARTNERS